Погода в Сутке

Россия / Ярославская область     58°20′29″N   37°32′36″E
темп.,
°C
ветер,
м/с
пор.,
м/с
влажн.,
%
обл.,
%
осадки,
мм/ч
давл.,
гПа
погр.,
м
16 июня, ср
ср1600:00+14сз2781100 0.0 1010138
03:00+12сз2694100 0.1 1011139
06:00+14сз2796100 0.8 1011355
09:00+18ссз46450 0.8 10131134
12:00+20сз57310 0.0 10132008
15:00+21сз56315 0.0 10142263
18:00+21сз46375 0.0 10152036
21:00+15зсз276149 0.0 1017127
17 июня, чт
чт1700:00+12сз310620 0.0 1019200
03:00+10сз276892 0.0 1021135
06:00+13сз26575 0.0 1022170
09:00+19з354115 0.0 1023983
12:00+22зсз473898 0.0 10232071
15:00+24зсз473478 0.0 10232559
18:00+23зсз364339 0.0 10231728
21:00+17зсз22660 0.0 102437
18 июня, пт
пт1800:00+14сз22675 0.0 102512
03:00+12зсз116961 0.0 102610
06:00+16юз236425 0.0 102687
09:00+22юз244545 0.0 1026680
12:00+24юз454319 0.0 10251451
15:00+26юз464033 0.0 10241695
18:00+26юз47462 0.0 10231740
21:00+20ююз39801 0.0 1023194
19 июня, сб
сб1900:00+17юз39835 0.0 1024198
03:00+15зюз38925 0.0 1024133
06:00+18зюз39775 0.0 1024228
09:00+24зюз47530 0.0 1024694
12:00+27зюз57420 0.0 10231748
15:00+28зюз57395 0.0 10222097
18:00+27юз46470 0.0 10211798
21:00+21ююз38810 0.0 1022166
20 июня, вс
вс2000:00+18юз310850 0.0 1022229
03:00+16юз37960 0.0 1023115
06:00+19юз36811 0.0 1023155
09:00+24юз355875 0.0 1022584
12:00+27юз454975 0.0 10211539
15:00+28юз46445 0.0 10201781
18:00+27юз46470 0.0 10191362
21:00+21ююз39760 0.0 1019199